Time,TemperatureF,DewpointF,PressureIn,WindDirection,WindDirectionDegrees,WindSpeedMPH,WindSpeedGustMPH,Humidity,HourlyPrecipIn,Conditions,Clouds,dailyrainin,SoftwareType,DateUTC
2013-06-03 00:00:00,66.4,60.0,29.88,NNW,344,2.0,6.0,80,0.00,,CLR,0.16,VWS V14.01,2013-06-03 04:00:00,
2013-06-03 00:15:00,66.6,59.5,29.87,North,350,0.0,3.0,78,0.00,,CLR,0.00,VWS V14.01,2013-06-03 04:15:00,
2013-06-03 00:30:00,66.1,59.0,29.88,NNW,343,0.0,5.0,78,0.00,,CLR,0.00,VWS V14.01,2013-06-03 04:30:00,
2013-06-03 00:45:00,65.8,58.8,29.88,NNW,340,0.0,8.0,78,0.00,,CLR,0.00,VWS V14.01,2013-06-03 04:45:00,
2013-06-03 01:00:00,65.3,58.6,29.88,North,353,0.0,5.0,79,0.00,,CLR,0.00,VWS V14.01,2013-06-03 05:00:00,
2013-06-03 01:15:00,64.8,58.8,29.88,NW,322,0.0,5.0,81,0.00,,CLR,0.00,VWS V14.01,2013-06-03 05:15:00,
2013-06-03 01:30:00,64.7,58.7,29.88,NNW,344,0.0,7.0,81,0.00,,CLR,0.00,VWS V14.01,2013-06-03 05:30:00,
2013-06-03 01:45:00,64.5,58.5,29.88,North,353,0.0,5.0,81,0.00,,CLR,0.00,VWS V14.01,2013-06-03 05:45:00,
2013-06-03 02:00:00,64.5,58.2,29.88,NNW,329,0.0,8.0,80,0.00,,CLR,0.00,VWS V14.01,2013-06-03 06:00:00,
2013-06-03 02:15:00,64.3,58.0,29.88,NNW,347,0.0,7.0,80,0.00,,CLR,0.00,VWS V14.01,2013-06-03 06:15:00,
2013-06-03 02:30:00,63.9,58.0,29.88,North,350,2.0,6.0,81,0.00,,BKN060,0.00,VWS V14.01,2013-06-03 06:30:00,
2013-06-03 02:45:00,63.7,57.8,29.89,NW,322,2.0,7.0,81,0.00,,BKN060,0.00,VWS V14.01,2013-06-03 06:45:00,
2013-06-03 03:00:00,63.5,57.6,29.89,NNW,344,2.0,6.0,81,0.00,,BKN060,0.00,VWS V14.01,2013-06-03 07:00:00,
2013-06-03 03:15:00,63.2,57.3,29.88,NNW,335,0.0,8.0,81,0.00,,OVC070,0.00,VWS V14.01,2013-06-03 07:15:00,
2013-06-03 03:30:00,62.9,57.0,29.88,North,352,0.0,6.0,81,0.00,,OVC070,0.00,VWS V14.01,2013-06-03 07:30:00,
2013-06-03 03:45:00,62.6,56.7,29.89,NNW,347,3.0,6.0,81,0.00,,OVC070,0.00,VWS V14.01,2013-06-03 07:45:00,
2013-06-03 04:00:00,62.4,56.5,29.89,NNW,344,0.0,7.0,81,0.00,,OVC070,0.00,VWS V14.01,2013-06-03 08:00:00,
2013-06-03 04:15:00,62.4,56.5,29.90,NNW,335,0.0,6.0,81,0.00,,OVC039,0.00,VWS V14.01,2013-06-03 08:15:00,
2013-06-03 04:30:00,62.1,56.2,29.90,North,353,0.0,6.0,81,0.00,,OVC039,0.00,VWS V14.01,2013-06-03 08:30:00,
2013-06-03 04:45:00,62.1,56.5,29.90,NNW,342,0.0,5.0,82,0.00,,OVC039,0.00,VWS V14.01,2013-06-03 08:45:00,
2013-06-03 05:00:00,62.0,56.5,29.90,NNW,344,0.0,4.0,82,0.00,,OVC039,0.00,VWS V14.01,2013-06-03 09:00:00,
2013-06-03 05:15:00,61.8,56.6,29.91,NNW,336,0.0,5.0,83,0.00,,OVC034,0.00,VWS V14.01,2013-06-03 09:15:00,
2013-06-03 05:30:00,61.6,56.4,29.91,NNW,340,5.0,6.0,83,0.00,,OVC034,0.00,VWS V14.01,2013-06-03 09:30:00,
2013-06-03 05:45:00,61.3,56.4,29.92,NNW,336,0.0,0.0,84,0.00,,OVC034,0.00,VWS V14.01,2013-06-03 09:45:00,
2013-06-03 06:00:00,61.3,56.4,29.92,NNW,336,3.0,3.0,84,0.00,,OVC034,0.00,VWS V14.01,2013-06-03 10:00:00,
2013-06-03 06:15:00,61.2,56.3,29.92,North,7,0.0,3.0,84,0.00,,OVC021,0.00,VWS V14.01,2013-06-03 10:15:00,
2013-06-03 06:30:00,61.2,56.3,29.92,North,349,0.0,3.0,84,0.00,,OVC021,0.00,VWS V14.01,2013-06-03 10:30:00,
2013-06-03 06:45:00,61.0,55.8,29.92,NNW,346,8.0,8.0,83,0.00,,OVC021,0.00,VWS V14.01,2013-06-03 10:45:00,
2013-06-03 07:00:00,60.9,55.0,29.93,North,7,2.0,7.0,81,0.00,,OVC021,0.00,VWS V14.01,2013-06-03 11:00:00,
2013-06-03 07:15:00,61.0,55.5,29.93,NE,48,0.0,5.0,82,0.00,,OVC085,0.00,VWS V14.01,2013-06-03 11:15:00,
2013-06-03 07:30:00,61.0,55.5,29.94,NE,37,0.0,6.0,82,0.00,,OVC085,0.00,VWS V14.01,2013-06-03 11:30:00,
2013-06-03 07:45:00,61.3,55.8,29.94,NNW,340,3.0,6.0,82,0.00,,OVC085,0.00,VWS V14.01,2013-06-03 11:45:00,
2013-06-03 08:00:00,61.8,55.9,29.94,North,359,2.0,7.0,81,0.00,,OVC085,0.00,VWS V14.01,2013-06-03 12:00:00,
2013-06-03 08:15:00,61.8,55.2,29.94,North,359,0.0,8.0,79,0.00,,OVC015,0.00,VWS V14.01,2013-06-03 12:15:00,
2013-06-03 08:30:00,62.1,55.2,29.95,North,354,0.0,5.0,78,0.00,,OVC015,0.00,VWS V14.01,2013-06-03 12:30:00,
2013-06-03 08:45:00,62.9,55.6,29.95,ENE,59,0.0,6.0,77,0.00,,OVC015,0.00,VWS V14.01,2013-06-03 12:45:00,
2013-06-03 09:00:00,63.5,55.4,29.96,North,0,0.0,7.0,75,0.00,,OVC015,0.00,VWS V14.01,2013-06-03 13:00:00,
2013-06-03 09:15:00,62.9,55.2,29.97,NNW,346,0.0,6.0,76,0.00,,OVC080,0.00,VWS V14.01,2013-06-03 13:15:00,
2013-06-03 09:30:00,63.1,55.4,29.97,NNE,20,0.0,6.0,76,0.00,,OVC080,0.00,VWS V14.01,2013-06-03 13:30:00,
2013-06-03 09:45:00,63.5,55.4,29.97,NNE,13,0.0,7.0,75,0.00,,OVC080,0.00,VWS V14.01,2013-06-03 13:45:00,
2013-06-03 10:00:00,64.0,55.6,29.97,North,354,2.0,7.0,74,0.00,,OVC080,0.00,VWS V14.01,2013-06-03 14:00:00,
2013-06-03 10:15:00,64.2,55.8,29.98,North,0,0.0,3.0,74,0.00,,OVC080,0.00,VWS V14.01,2013-06-03 14:15:00,
2013-06-03 10:30:00,64.7,55.9,29.97,North,356,0.0,6.0,73,0.00,,OVC085,0.00,VWS V14.01,2013-06-03 14:30:00,
2013-06-03 10:45:00,65.2,56.0,29.98,North,8,5.0,8.0,72,0.00,,OVC085,0.00,VWS V14.01,2013-06-03 14:45:00,
2013-06-03 11:00:00,65.5,56.2,29.98,North,353,0.0,6.0,72,0.00,,OVC085,0.00,VWS V14.01,2013-06-03 15:00:00,
2013-06-03 11:15:00,65.6,56.3,29.98,North,354,0.0,6.0,72,0.00,,OVC019,0.00,VWS V14.01,2013-06-03 15:15:00,
2013-06-03 11:30:00,66.0,56.3,29.99,North,7,0.0,5.0,71,0.00,,OVC019,0.00,VWS V14.01,2013-06-03 15:30:00,
2013-06-03 11:45:00,66.3,56.2,29.99,NNE,24,0.0,5.0,70,0.00,,OVC019,0.00,VWS V14.01,2013-06-03 15:45:00,
2013-06-03 12:00:00,66.4,57.1,29.99,NNE,27,4.0,5.0,72,0.00,,OVC019,0.00,VWS V14.01,2013-06-03 16:00:00,
2013-06-03 12:15:00,66.9,57.2,30.00,North,353,0.0,5.0,71,0.00,,OVC022,0.00,VWS V14.01,2013-06-03 16:15:00,
2013-06-03 12:30:00,67.1,56.2,30.00,NE,52,3.0,7.0,68,0.00,,OVC022,0.00,VWS V14.01,2013-06-03 16:30:00,
2013-06-03 12:45:00,67.1,56.6,30.00,NNW,336,0.0,6.0,69,0.00,,OVC022,0.00,VWS V14.01,2013-06-03 16:45:00,
2013-06-03 13:00:00,67.3,56.8,30.00,NNE,27,0.0,6.0,69,0.00,,OVC022,0.00,VWS V14.01,2013-06-03 17:00:00,
2013-06-03 13:15:00,67.3,57.2,30.00,North,0,0.0,8.0,70,0.00,,OVC033,0.00,VWS V14.01,2013-06-03 17:15:00,
2013-06-03 13:30:00,66.6,56.1,30.00,NNW,344,0.0,8.0,69,0.00,,OVC031,0.00,VWS V14.01,2013-06-03 17:30:00,
2013-06-03 13:45:00,67.8,56.9,29.99,North,356,2.0,8.0,68,0.00,,OVC033,0.00,VWS V14.01,2013-06-03 17:45:00,
2013-06-03 14:00:00,67.4,56.5,30.00,NNW,343,7.0,7.0,68,0.00,,OVC033,0.00,VWS V14.01,2013-06-03 18:00:00,
2013-06-03 14:15:00,67.4,56.1,29.99,NE,41,0.0,8.0,67,0.00,,OVC038,0.00,VWS V14.01,2013-06-03 18:15:00,
2013-06-03 14:30:00,67.1,56.6,29.99,WNW,294,1.0,6.0,69,0.00,,OVC038,0.00,VWS V14.01,2013-06-03 18:30:00,
2013-06-03 14:45:00,67.1,56.6,29.99,NNW,336,6.0,8.0,69,0.00,,OVC038,0.00,VWS V14.01,2013-06-03 18:45:00,
2013-06-03 15:00:00,66.9,56.0,29.99,NNE,20,0.0,6.0,68,0.00,,OVC038,0.00,VWS V14.01,2013-06-03 19:00:00,
2013-06-03 15:15:00,69.3,57.0,29.98,NE,37,5.0,8.0,65,0.00,,OVC044,0.00,VWS V14.01,2013-06-03 19:15:00,
2013-06-03 15:30:00,68.6,56.0,29.98,NNW,346,0.0,7.0,64,0.00,,OVC044,0.00,VWS V14.01,2013-06-03 19:30:00,
2013-06-03 15:45:00,67.4,55.7,29.98,NW,325,0.0,6.0,66,0.00,,OVC044,0.00,VWS V14.01,2013-06-03 19:45:00,
2013-06-03 16:00:00,67.9,55.7,29.97,North,0,1.0,5.0,65,0.00,,OVC044,0.00,VWS V14.01,2013-06-03 20:00:00,
2013-06-03 16:15:00,69.4,55.4,29.96,NE,37,0.0,10.0,61,0.00,,OVC043,0.00,VWS V14.01,2013-06-03 20:15:00,
2013-06-03 16:30:00,68.1,55.5,29.97,NNW,339,3.0,11.0,64,0.00,,SCT032,0.00,VWS V14.01,2013-06-03 20:30:00,
2013-06-03 16:45:00,66.1,54.8,29.97,NE,38,0.0,8.0,67,0.00,,OVC043,0.00,VWS V14.01,2013-06-03 20:45:00,
2013-06-03 17:00:00,66.1,54.8,29.97,North,3,1.0,11.0,67,0.00,,OVC043,0.00,VWS V14.01,2013-06-03 21:00:00,
2013-06-03 17:15:00,67.6,55.8,29.97,NNW,340,0.0,7.0,66,0.00,,OVC043,0.00,VWS V14.01,2013-06-03 21:15:00,
2013-06-03 17:30:00,68.9,54.9,29.97,NNE,14,2.0,9.0,61,0.00,,OVC045,0.00,VWS V14.01,2013-06-03 21:30:00,
2013-06-03 17:45:00,67.6,55.0,29.97,NNE,25,0.0,6.0,64,0.00,,OVC045,0.00,VWS V14.01,2013-06-03 21:45:00,
2013-06-03 18:00:00,66.4,53.9,29.97,NNW,329,1.0,7.0,64,0.00,,OVC045,0.00,VWS V14.01,2013-06-03 22:00:00,
2013-06-03 18:15:00,66.0,54.3,29.97,NNE,17,0.0,5.0,66,0.00,,OVC038,0.00,VWS V14.01,2013-06-03 22:15:00,
2013-06-03 18:30:00,66.3,54.2,29.97,North,357,3.0,6.0,65,0.00,,OVC038,0.00,VWS V14.01,2013-06-03 22:30:00,
2013-06-03 18:45:00,66.3,54.2,29.97,North,357,0.0,7.0,65,0.00,,OVC038,0.00,VWS V14.01,2013-06-03 22:45:00,
2013-06-03 19:00:00,66.1,53.6,29.98,NNW,344,3.0,6.0,64,0.00,,OVC038,0.00,VWS V14.01,2013-06-03 23:00:00,
2013-06-03 19:15:00,66.0,53.5,29.99,North,3,0.0,4.0,64,0.00,,OVC038,0.00,VWS V14.01,2013-06-03 23:15:00,
2013-06-03 19:30:00,65.6,53.5,29.99,NNW,330,0.0,6.0,65,0.00,,OVC038,0.00,VWS V14.01,2013-06-03 23:30:00,
2013-06-03 19:45:00,65.3,52.8,29.99,North,4,2.0,3.0,64,0.00,,BKN043,0.00,VWS V14.01,2013-06-03 23:45:00,
2013-06-03 20:00:00,64.3,52.7,30.00,North,350,0.0,2.0,66,0.00,,BKN043,0.00,VWS V14.01,2013-06-04 00:00:00,
2013-06-03 20:15:00,63.7,52.5,30.00,North,350,0.0,0.0,67,0.00,,BKN043,0.00,VWS V14.01,2013-06-04 00:15:00,
2013-06-03 20:30:00,63.2,52.9,30.00,North,350,0.0,0.0,69,0.00,,SCT045,0.00,VWS V14.01,2013-06-04 00:30:00,
2013-06-03 20:45:00,62.4,52.9,30.00,North,350,0.0,0.0,71,0.00,,SCT045,0.00,VWS V14.01,2013-06-04 00:45:00,
2013-06-03 21:00:00,61.3,53.0,30.01,North,350,0.0,0.0,74,0.00,,SCT045,0.00,VWS V14.01,2013-06-04 01:00:00,
2013-06-03 21:15:00,59.9,52.3,30.02,North,350,0.0,0.0,76,0.00,,CLR,0.00,VWS V14.01,2013-06-04 01:15:00,
2013-06-03 21:30:00,58.7,52.2,30.03,North,350,0.0,0.0,79,0.00,,CLR,0.00,VWS V14.01,2013-06-04 01:30:00,
2013-06-03 21:45:00,57.5,51.7,30.04,North,350,0.0,0.0,81,0.00,,CLR,0.00,VWS V14.01,2013-06-04 01:45:00,
2013-06-03 22:00:00,56.6,51.2,30.05,North,350,0.0,0.0,82,0.00,,CLR,0.00,VWS V14.01,2013-06-04 02:00:00,
2013-06-03 22:15:00,55.7,51.0,30.05,North,350,0.0,0.0,84,0.00,,CLR,0.00,VWS V14.01,2013-06-04 02:15:00,
2013-06-03 22:30:00,54.8,50.7,30.06,North,350,0.0,0.0,86,0.00,,FEW044,0.00,VWS V14.01,2013-06-04 02:30:00,
2013-06-03 22:45:00,54.7,51.2,30.06,North,350,0.0,0.0,88,0.00,,FEW044,0.00,VWS V14.01,2013-06-04 02:45:00,
2013-06-03 23:00:00,54.4,50.9,30.06,North,350,0.0,0.0,88,0.00,,FEW044,0.00,VWS V14.01,2013-06-04 03:00:00,
2013-06-03 23:15:00,54.1,50.6,30.07,North,352,0.0,3.0,88,0.00,,CLR,0.00,VWS V14.01,2013-06-04 03:15:00,
2013-06-03 23:30:00,54.1,50.3,30.07,North,352,0.0,0.0,87,0.00,,CLR,0.00,VWS V14.01,2013-06-04 03:30:00,
2013-06-03 23:45:00,54.1,49.1,30.07,NNE,17,0.0,4.0,83,0.00,,CLR,0.00,VWS V14.01,2013-06-04 03:45:00,